Flag for U.S.A. Weather past 2 weeks in Oakland, California, U.S.A.

Now
69 °F

Partly sunny.


Feels Like: 69 °F
Forecast: 61 / 74 °F
Wind: 8 mph from Northwest

Location: Metro Oakland International Airport

Current Time: Sep 2, 2014 at 12:38:46 PM

Latest Report: Sep 2, 2014 at 11:53 AM


Visibility: 10 mi

Pressure: 29.86 "Hg

Humidity: 66%

Dew point: 57 °F

Location of OaklandLocation

Historic Weather in Oakland — Graph

°F

Oakland temperature yesterday

Maximum temperature yesterday: 83 °F (at 1:53 PM)
Minimum temperature yesterday: 58 °F (at 5:53 AM)
Average temperature yesterday: 69 °F

Past Weeks' High & Low Weather Summary

 TemperatureHumidityPressure
High83 °F (Sep 1, 1:53 PM)90% (Aug 30, 6:53 AM)30.08 "Hg (Aug 30, 6:53 AM)
Low58 °F (Sep 1, 5:53 AM)42% (Sep 1, 2:53 PM)29.76 "Hg (Sep 1, 6:53 PM)
Average66 °F71%29.91 "Hg
* Reported Aug 18 10:53 AM — Sep 2 10:53 AM, Oakland, Weather by CustomWeather, © 2014

Note: Actual official high and low records may vary slightly from our data, if they occured in-between our weather recording intervals... More about our weather records

Advertising

Oakland weather history for previous 24 hours

 ConditionsComfort  
Time TempWeatherWind HumidityBarometerVisibility
10:53 AM
Sep 2
67 °FPartly sunny.6 mph73%29.86 "Hg10 mi
9:53 AM65 °FOvercast.5 mph76%29.86 "Hg10 mi
8:53 AM64 °FMore clouds than sun.8 mph78%29.85 "Hg10 mi
8:00 AM63 °FMore clouds than sun.5 mph83%29.85 "Hg7 mi
6:53 AM62 °FOvercast.8 mph80%29.83 "Hg8 mi
6:02 AM61 °FPassing clouds.6 mph83%29.82 "Hg9 mi
5:53 AM61 °FPassing clouds.5 mph83%29.81 "Hg9 mi
4:53 AM62 °FPassing clouds.6 mph83%29.80 "Hg10 mi
3:53 AM62 °FClear.6 mph83%29.80 "Hg10 mi
2:53 AM60 °FClear.No wind86%29.79 "Hg9 mi
1:53 AM61 °FClear.3 mph81%29.79 "Hg9 mi
12:53 AM63 °FClear.3 mph81%29.80 "Hg10 mi
11:53 PM
Sep 1
63 °FClear.5 mph81%29.80 "Hg10 mi
10:53 PM64 °FClear.7 mph78%29.80 "Hg10 mi
9:53 PM66 °FClear.8 mph73%29.80 "Hg10 mi
8:53 PM67 °FClear.12 mph71%29.78 "Hg10 mi
7:53 PM69 °FSunny.10 mph66%29.76 "Hg10 mi
6:53 PM72 °FSunny.9 mph61%29.76 "Hg10 mi
5:53 PM75 °FSunny.10 mph54%29.76 "Hg10 mi
4:53 PM80 °FSunny.12 mph45%29.77 "Hg10 mi
3:53 PM81 °FSunny.10 mph45%29.78 "Hg10 mi
2:53 PM81 °FSunny.15 mph42%29.79 "Hg10 mi
1:53 PM83 °FSunny.14 mph43%29.80 "Hg10 mi
12:53 PM80 °FSunny.12 mph44%29.82 "Hg10 mi
Weather by CustomWeather, © 2014

See weather overviewHow to use our weather pages